Retour au catalogue

STARLINK-32698

ActifCommunicationsVLEO
NORAD 62312·PAYLOAD·🇺🇸 United States

Lancé Dec 13, 2024 depuis Vandenberg Space Force Base

Loading…

Prochains Passages (prochaines 24 heures)

TLE

FraisSource: CelesTrak SupGP

Époque: Sep 15, 2026, 03:31 UTC

1 62312C 24239M   26258.14701389  .00034989  00000+0  10341-2 0  2581
2 62312  53.1592  30.5448 0001178  90.1174  71.7790 15.34363903    13

Suivez STARLINK-32698 en temps réel avec AllMySat

Download on the App Store